,,Stat5,,Stat1,,Stat2,,Stat3,,Stat4,,Wind1,,Wind1,
time,status,PA1M_AVG,status,PR1M_SUM,status,RH1M_AVG,status,SR1M_AVG,status,TA1M_AVG,status,W1dAve1m,status,W1sAve1m,
2001-04-05, 00:00:00,VALID,917.876,VALID,0,VALID,96.8734,VALID,-0.0169808,VALID,19.7581,VALID,307,VALID,0.00078125,
2001-04-05, 00:01:00,VALID,917.849,VALID,0,VALID,96.8047,VALID,0,VALID,19.7512,VALID,307,VALID,0.0015191,
2001-04-05, 00:02:00,VALID,917.853,VALID,0,VALID,96.7348,VALID,-0.0169808,VALID,19.7487,VALID,309,VALID,0.148828,
2001-04-05, 00:03:00,VALID,917.868,VALID,0,VALID,96.7335,VALID,0.0169808,VALID,19.7581,VALID,309,VALID,0,
2001-04-05, 00:04:00,VALID,917.859,VALID,0,VALID,96.7717,VALID,-0.0339617,VALID,19.7613,VALID,301,VALID,0,
2001-04-05, 00:05:00,VALID,917.862,VALID,0,VALID,96.7589,VALID,0,VALID,19.7678,VALID,247,VALID,0.000976563,
2001-04-05, 00:06:00,VALID,917.876,VALID,0,VALID,96.7335,VALID,0,VALID,19.7648,VALID,241,VALID,0,
2001-04-05, 00:07:00,VALID,917.88,VALID,0,VALID,96.7297,VALID,-0.0339617,VALID,19.7581,VALID,241,VALID,0,
2001-04-05, 00:08:00,VALID,917.887,VALID,0,VALID,96.7297,VALID,-0.0169808,VALID,19.7479,VALID,241,VALID,0,
2001-04-05, 00:09:00,VALID,917.887,VALID,0,VALID,96.7399,VALID,-0.0169808,VALID,19.7519,VALID,241,VALID,0,
2001-04-05, 00:10:00,VALID,917.884,VALID,0,VALID,96.675,VALID,0,VALID,19.7387,VALID,241,VALID,0,
2001-04-05, 00:11:00,VALID,917.871,VALID,0,VALID,96.6941,VALID,-0.0169808,VALID,19.7189,VALID,184,VALID,0,
2001-04-05, 00:12:00,VALID,917.877,VALID,0,VALID,96.661,VALID,0,VALID,19.7228,VALID,114,VALID,0,
2001-04-05, 00:13:00,VALID,917.877,VALID,0,VALID,96.6699,VALID,0,VALID,19.7159,VALID,114,VALID,0,
2001-04-05, 00:14:00,VALID,917.853,VALID,0,VALID,96.6865,VALID,-0.0339617,VALID,19.7293,VALID,114,VALID,0.00907939,
2001-04-05, 00:15:00,VALID,917.842,VALID,0,VALID,96.4817,VALID,-0.0339617,VALID,19.7258,VALID,130,VALID,0.469401,
2001-04-05, 00:16:00,VALID,917.846,VALID,0,VALID,96.3215,VALID,0,VALID,19.6903,VALID,139,VALID,0.519866,
2001-04-05, 00:17:00,VALID,917.85,VALID,0,VALID,96.2681,VALID,-0.0169808,VALID,19.6836,VALID,143,VALID,0.298564,
2001-04-05, 00:18:00,VALID,917.85,VALID,0,VALID,96.216,VALID,-0.0339617,VALID,19.6545,VALID,149,VALID,0.0494088,
2001-04-05, 00:19:00,VALID,917.842,VALID,0,VALID,96.2134,VALID,-0.0509425,VALID,19.6157,VALID,149,VALID,0.0340545,
2001-04-05, 00:20:00,VALID,917.839,VALID,0,VALID,96.4423,VALID,-0.0339617,VALID,19.6028,VALID,149,VALID,0.26222,
2001-04-05, 00:21:00,VALID,917.844,VALID,0,VALID,96.6229,VALID,-0.0169808,VALID,19.5988,VALID,136,VALID,0.530357,
2001-04-05, 00:22:00,VALID,917.842,VALID,0,VALID,96.5936,VALID,0,VALID,19.5961,VALID,100,VALID,0.819696,
2001-04-05, 00:23:00,VALID,917.85,VALID,0,VALID,96.4512,VALID,-0.0169808,VALID,19.5934,VALID,92,VALID,0.981571,
2001-04-05, 00:24:00,VALID,917.86,VALID,0,VALID,96.4525,VALID,-0.0339617,VALID,19.5539,VALID,84,VALID,1.17949,
2001-04-05, 00:25:00,VALID,917.853,VALID,0,VALID,96.5682,VALID,-0.0169808,VALID,19.5322,VALID,85,VALID,0.722128,
2001-04-05, 00:26:00,VALID,917.847,VALID,0,VALID,96.689,VALID,0,VALID,19.5154,VALID,88,VALID,0.803632,
2001-04-05, 00:27:00,VALID,917.816,VALID,0,VALID,96.8479,VALID,0,VALID,19.5059,VALID,91,VALID,0.691189,
2001-04-05, 00:28:00,VALID,917.805,VALID,0,VALID,97.0298,VALID,0,VALID,19.4997,VALID,88,VALID,0.721289,
2001-04-05, 00:29:00,VALID,917.772,VALID,0,VALID,97.1163,VALID,-0.0339617,VALID,19.4766,VALID,94,VALID,0.69043,
2001-04-05, 00:30:00,VALID,917.755,VALID,0,VALID,97.2396,VALID,-0.0339617,VALID,19.4604,VALID,100,VALID,0.53125,
2001-04-05, 00:31:00,VALID,917.742,VALID,0,VALID,97.3426,VALID,0,VALID,19.4639,VALID,106,VALID,0.642628,
2001-04-05, 00:32:00,VALID,917.713,VALID,0,VALID,97.4049,VALID,-0.0169808,VALID,19.4478,VALID,102,VALID,0.737054,
2001-04-05, 00:33:00,VALID,917.709,VALID,0,VALID,97.5219,VALID,-0.0169808,VALID,19.4284,VALID,102,VALID,0.630008,
2001-04-05, 00:34:00,VALID,917.694,VALID,0,VALID,97.6109,VALID,-0.0169808,VALID,19.4157,VALID,102,VALID,0.470395,
2001-04-05, 00:35:00,VALID,917.692,VALID,0,VALID,97.6834,VALID,-0.0169808,VALID,19.3904,VALID,106,VALID,0.682771,
2001-04-05, 00:36:00,VALID,917.697,VALID,0,VALID,97.85,VALID,-0.0169808,VALID,19.3829,VALID,100,VALID,0.222656,
2001-04-05, 00:37:00,VALID,917.694,VALID,0,VALID,97.9085,VALID,-0.0509425,VALID,19.3871,VALID,107,VALID,0.410807,
2001-04-05, 00:38:00,VALID,917.69,VALID,0,VALID,97.9504,VALID,-0.0849042,VALID,19.3745,VALID,117,VALID,0.422564,
2001-04-05, 00:39:00,VALID,917.689,VALID,0,VALID,98.0445,VALID,-0.0849042,VALID,19.3804,VALID,131,VALID,0.442356,
2001-04-05, 00:40:00,VALID,917.691,VALID,0,VALID,98.0522,VALID,-0.101885,VALID,19.3804,VALID,134,VALID,0.290865,
2001-04-05, 00:41:00,VALID,917.681,VALID,0,VALID,98.103,VALID,-0.101885,VALID,19.3874,VALID,135,VALID,0.00981571,
2001-04-05, 00:42:00,VALID,917.647,VALID,0,VALID,98.0979,VALID,-0.0679233,VALID,19.41,VALID,132,VALID,0,
2001-04-05, 00:43:00,VALID,917.615,VALID,0,VALID,98.0674,VALID,-0.0679233,VALID,19.4065,VALID,132,VALID,0,
2001-04-05, 00:44:00,VALID,917.588,VALID,0,VALID,98.0369,VALID,-0.101885,VALID,19.4097,VALID,132,VALID,0,
2001-04-05, 00:45:00,VALID,917.545,VALID,0,VALID,98.0115,VALID,-0.101885,VALID,19.4366,VALID,132,VALID,0,
2001-04-05, 00:46:00,VALID,917.515,VALID,0,VALID,98.0038,VALID,-0.101885,VALID,19.4522,VALID,132,VALID,0,
2001-04-05, 00:47:00,VALID,917.498,VALID,0,VALID,97.9797,VALID,-0.101885,VALID,19.4684,VALID,132,VALID,0,
2001-04-05, 00:48:00,VALID,917.469,VALID,0,VALID,97.8551,VALID,-0.101885,VALID,19.5039,VALID,132,VALID,0,
2001-04-05, 00:49:00,VALID,917.466,VALID,0,VALID,97.6236,VALID,-0.135847,VALID,19.5168,VALID,132,VALID,0,
2001-04-05, 00:50:00,VALID,917.448,VALID,0,VALID,97.4367,VALID,-0.101885,VALID,19.5558,VALID,132,VALID,0,
2001-04-05, 00:51:00,VALID,917.442,VALID,0,VALID,97.307,VALID,-0.101885,VALID,19.5949,VALID,132,VALID,0,
2001-04-05, 00:52:00,VALID,917.433,VALID,0,VALID,97.1366,VALID,-0.0339617,VALID,19.6262,VALID,132,VALID,0,
2001-04-05, 00:53:00,VALID,917.421,VALID,0,VALID,96.9242,VALID,0.0339617,VALID,19.6051,VALID,132,VALID,0,
2001-04-05, 00:54:00,VALID,917.415,VALID,0,VALID,96.7793,VALID,0,VALID,19.6279,VALID,133,VALID,0,
2001-04-05, 00:55:00,VALID,917.419,VALID,0,VALID,96.689,VALID,0.0169808,VALID,19.6182,VALID,133,VALID,0,
2001-04-05, 00:56:00,VALID,917.413,VALID,0,VALID,96.6445,VALID,0,VALID,19.6346,VALID,133,VALID,0,
2001-04-05, 00:57:00,VALID,917.396,VALID,0,VALID,96.5784,VALID,0.0509425,VALID,19.6381,VALID,133,VALID,0,
2001-04-05, 00:58:00,VALID,917.396,VALID,0,VALID,96.4588,VALID,0,VALID,19.6279,VALID,133,VALID,0,
2001-04-05, 00:59:00,VALID,917.394,VALID,0,VALID,96.422,VALID,0.0169808,VALID,19.6379,VALID,133,VALID,0,
2001-04-05, 01:00:00,VALID,917.389,VALID,0,VALID,96.4118,VALID,0.0339617,VALID,19.6503,VALID,133,VALID,0,
2001-04-05, 01:01:00,VALID,917.382,VALID,0,VALID,96.4016,VALID,0.0339617,VALID,19.6669,VALID,133,VALID,0,
2001-04-05, 01:02:00,VALID,917.394,VALID,0,VALID,96.4461,VALID,0.0679233,VALID,19.6856,VALID,133,VALID,0,
2001-04-05, 01:03:00,VALID,917.403,VALID,0,VALID,96.2185,VALID,0,VALID,19.6893,VALID,133,VALID,0,
2001-04-05, 01:04:00,VALID,917.421,VALID,0,VALID,95.9388,VALID,0,VALID,19.6667,VALID,133,VALID,0,
2001-04-05, 01:05:00,VALID,917.435,VALID,0,VALID,95.8599,VALID,0,VALID,19.6607,VALID,133,VALID,0,
2001-04-05, 01:06:00,VALID,917.438,VALID,0,VALID,96.1715,VALID,0.0169808,VALID,19.6637,VALID,192,VALID,0,
2001-04-05, 01:07:00,VALID,917.454,VALID,0,VALID,96.3736,VALID,0.0169808,VALID,19.6381,VALID,295,VALID,0,
2001-04-05, 01:08:00,VALID,917.479,VALID,0,VALID,96.5173,VALID,0.0339617,VALID,19.6215,VALID,295,VALID,0,
2001-04-05, 01:09:00,VALID,917.475,VALID,0,VALID,96.6381,VALID,0.0169808,VALID,19.6118,VALID,295,VALID,0,
2001-04-05, 01:10:00,VALID,917.469,VALID,0,VALID,96.7144,VALID,0.0169808,VALID,19.6118,VALID,295,VALID,0,
2001-04-05, 01:11:00,VALID,917.452,VALID,0,VALID,96.7984,VALID,0.0339617,VALID,19.6316,VALID,295,VALID,0,
2001-04-05, 01:12:00,VALID,917.433,VALID,0,VALID,96.8352,VALID,0,VALID,19.6346,VALID,270,VALID,0,
2001-04-05, 01:13:00,VALID,917.432,VALID,0,VALID,96.8594,VALID,0,VALID,19.6707,VALID,181,VALID,0,
2001-04-05, 01:14:00,VALID,917.422,VALID,0,VALID,96.806,VALID,0.0169808,VALID,19.6764,VALID,181,VALID,0,
2001-04-05, 01:15:00,VALID,917.406,VALID,0,VALID,96.5148,VALID,0,VALID,19.69,VALID,181,VALID,0,
2001-04-05, 01:16:00,VALID,917.415,VALID,0,VALID,96.3037,VALID,0.0169808,VALID,19.6801,VALID,181,VALID,0,
2001-04-05, 01:17:00,VALID,917.399,VALID,0,VALID,96.3673,VALID,0,VALID,19.6801,VALID,189,VALID,0,
2001-04-05, 01:18:00,VALID,917.394,VALID,0,VALID,96.3546,VALID,0.0169808,VALID,19.6798,VALID,225,VALID,0,
2001-04-05, 01:19:00,VALID,917.393,VALID,0,VALID,96.3889,VALID,0,VALID,19.693,VALID,229,VALID,0,
2001-04-05, 01:20:00,VALID,917.377,VALID,0,VALID,96.3813,VALID,0,VALID,19.6928,VALID,225,VALID,0,
2001-04-05, 01:21:00,VALID,917.367,VALID,0,VALID,96.319,VALID,0.0339617,VALID,19.6861,VALID,219,VALID,0,
2001-04-05, 01:22:00,VALID,917.374,VALID,0,VALID,96.3419,VALID,0.0679233,VALID,19.6828,VALID,199,VALID,0,
2001-04-05, 01:23:00,VALID,917.37,VALID,0,VALID,96.4398,VALID,0.101885,VALID,19.6754,VALID,212,VALID,0,
2001-04-05, 01:24:00,VALID,917.362,VALID,0,VALID,96.5084,VALID,0.118866,VALID,19.6582,VALID,214,VALID,0,
2001-04-05, 01:25:00,VALID,917.348,VALID,0,VALID,96.6038,VALID,0.101885,VALID,19.6555,VALID,199,VALID,0,
2001-04-05, 01:26:00,VALID,917.326,VALID,0,VALID,96.7132,VALID,0.101885,VALID,19.6684,VALID,193,VALID,0,
2001-04-05, 01:27:00,VALID,917.307,VALID,0,VALID,96.6992,VALID,0.0849042,VALID,19.6749,VALID,193,VALID,0,
2001-04-05, 01:28:00,VALID,917.304,VALID,0,VALID,96.689,VALID,0.101885,VALID,19.698,VALID,192,VALID,0,
2001-04-05, 01:29:00,VALID,917.297,VALID,0,VALID,96.6343,VALID,0.101885,VALID,19.7007,VALID,189,VALID,0,
2001-04-05, 01:30:00,VALID,917.281,VALID,0,VALID,96.4995,VALID,0.101885,VALID,19.7136,VALID,187,VALID,0,
2001-04-05, 01:31:00,VALID,917.273,VALID,0,VALID,96.4105,VALID,0.101885,VALID,19.7104,VALID,187,VALID,0,
2001-04-05, 01:32:00,VALID,917.253,VALID,0,VALID,96.3507,VALID,0.101885,VALID,19.7144,VALID,186,VALID,0,
2001-04-05, 01:33:00,VALID,917.232,VALID,0,VALID,96.319,VALID,0.118866,VALID,19.7104,VALID,185,VALID,0,
2001-04-05, 01:34:00,VALID,917.216,VALID,0,VALID,96.2821,VALID,0.118866,VALID,19.701,VALID,174,VALID,0,
2001-04-05, 01:35:00,VALID,917.191,VALID,0,VALID,96.2554,VALID,0.101885,VALID,19.6746,VALID,165,VALID,0,
2001-04-05, 01:36:00,VALID,917.155,VALID,0,VALID,96.3329,VALID,0.101885,VALID,19.6784,VALID,162,VALID,0,
2001-04-05, 01:37:00,VALID,917.137,VALID,0,VALID,96.4983,VALID,0.0849042,VALID,19.6724,VALID,144,VALID,0,
2001-04-05, 01:38:00,VALID,917.115,VALID,0,VALID,96.558,VALID,0,VALID,19.6766,VALID,145,VALID,0,
2001-04-05, 01:39:00,VALID,917.102,VALID,0,VALID,96.5707,VALID,-0.0169808,VALID,19.6838,VALID,144,VALID,0,
2001-04-05, 01:40:00,VALID,917.098,VALID,0,VALID,96.525,VALID,-0.0169808,VALID,19.6938,VALID,143,VALID,0,
2001-04-05, 01:41:00,VALID,917.087,VALID,0,VALID,96.469,VALID,-0.0339617,VALID,19.6967,VALID,140,VALID,0,
2001-04-05, 01:42:00,VALID,917.081,VALID,0,VALID,96.3991,VALID,0,VALID,19.687,VALID,140,VALID,0,
2001-04-05, 01:43:00,VALID,917.064,VALID,0,VALID,96.3902,VALID,-0.0169808,VALID,19.6739,VALID,140,VALID,0,
2001-04-05, 01:44:00,VALID,917.063,VALID,0,VALID,96.3914,VALID,0,VALID,19.6639,VALID,140,VALID,0,
2001-04-05, 01:45:00,VALID,917.053,VALID,0,VALID,96.3482,VALID,0.0509425,VALID,19.6376,VALID,140,VALID,0,
2001-04-05, 01:46:00,VALID,917.049,VALID,0,VALID,96.4563,VALID,0.0169808,VALID,19.6344,VALID,129,VALID,0,
2001-04-05, 01:47:00,VALID,917.038,VALID,0,VALID,96.5389,VALID,0,VALID,19.6413,VALID,107,VALID,0,
2001-04-05, 01:48:00,VALID,917.018,VALID,0,VALID,96.525,VALID,0,VALID,19.648,VALID,101,VALID,0,
2001-04-05, 01:49:00,VALID,917.017,VALID,0,VALID,96.4296,VALID,-0.0339617,VALID,19.6289,VALID,99,VALID,0,
2001-04-05, 01:50:00,VALID,917,VALID,0,VALID,96.2465,VALID,0,VALID,19.6065,VALID,94,VALID,0,
2001-04-05, 01:51:00,VALID,916.982,VALID,0,VALID,96.1982,VALID,0,VALID,19.5638,VALID,94,VALID,0,
2001-04-05, 01:52:00,VALID,916.972,VALID,0,VALID,96.2948,VALID,0,VALID,19.5578,VALID,94,VALID,0,
2001-04-05, 01:53:00,VALID,916.949,VALID,0,VALID,96.1969,VALID,0,VALID,19.531,VALID,89,VALID,0,
2001-04-05, 01:54:00,VALID,916.932,VALID,0,VALID,96.174,VALID,-0.0169808,VALID,19.5253,VALID,82,VALID,0,
2001-04-05, 01:55:00,VALID,916.935,VALID,0,VALID,96.2935,VALID,-0.0339617,VALID,19.535,VALID,82,VALID,0,
2001-04-05, 01:56:00,VALID,916.93,VALID,0,VALID,96.3151,VALID,0,VALID,19.5449,VALID,78,VALID,0,
2001-04-05, 01:57:00,VALID,916.919,VALID,0,VALID,96.4601,VALID,-0.0169808,VALID,19.5546,VALID,63,VALID,0,
2001-04-05, 01:58:00,VALID,916.911,VALID,0,VALID,96.6915,VALID,-0.0169808,VALID,19.5678,VALID,63,VALID,0,
2001-04-05, 01:59:00,VALID,916.906,VALID,0,VALID,96.8047,VALID,0,VALID,19.5573,VALID,38,VALID,0.313502,
2001-04-05, 02:00:00,VALID,916.892,VALID,0,VALID,96.9446,VALID,-0.0339617,VALID,19.5583,VALID,33,VALID,0.0178571,
2001-04-05, 02:01:00,VALID,916.89,VALID,0,VALID,97.1061,VALID,-0.0169808,VALID,19.5484,VALID,33,VALID,0.155222,
2001-04-05, 02:02:00,VALID,916.876,VALID,0,VALID,97.1658,VALID,0,VALID,19.5223,VALID,345,VALID,0.265625,
2001-04-05, 02:03:00,VALID,916.864,VALID,0,VALID,97.2587,VALID,-0.0169808,VALID,19.5029,VALID,12,VALID,0.329883,
2001-04-05, 02:04:00,VALID,916.837,VALID,0,VALID,97.3693,VALID,-0.0509425,VALID,19.4967,VALID,353,VALID,0.197846,
2001-04-05, 02:05:00,VALID,916.839,VALID,0,VALID,97.4494,VALID,-0.0509425,VALID,19.4766,VALID,6,VALID,0.281039,
2001-04-05, 02:06:00,VALID,916.828,VALID,0,VALID,97.5651,VALID,0,VALID,19.49,VALID,339,VALID,0.00651042,
2001-04-05, 02:07:00,VALID,916.824,VALID,0,VALID,97.5956,VALID,0,VALID,19.4898,VALID,304,VALID,0,
2001-04-05, 02:08:00,VALID,916.802,VALID,0,VALID,97.5893,VALID,0,VALID,19.4803,VALID,304,VALID,0,
2001-04-05, 02:09:00,VALID,916.791,VALID,0,VALID,97.5982,VALID,-0.0169808,VALID,19.4706,VALID,304,VALID,0,
2001-04-05, 02:10:00,VALID,916.774,VALID,0,VALID,97.6313,VALID,-0.0679233,VALID,19.4669,VALID,304,VALID,0,
2001-04-05, 02:11:00,VALID,916.768,VALID,0,VALID,97.6491,VALID,0,VALID,19.451,VALID,304,VALID,0,
2001-04-05, 02:12:00,VALID,916.756,VALID,0,VALID,97.7292,VALID,-0.0169808,VALID,19.4642,VALID,304,VALID,0,
2001-04-05, 02:13:00,VALID,916.752,VALID,0,VALID,97.7915,VALID,-0.0339617,VALID,19.4838,VALID,305,VALID,0,
2001-04-05, 02:14:00,VALID,916.744,VALID,0,VALID,97.9008,VALID,0,VALID,19.4997,VALID,307,VALID,0,
2001-04-05, 02:15:00,VALID,916.743,VALID,0,VALID,97.9415,VALID,0,VALID,19.5352,VALID,321,VALID,0.00368924,
2001-04-05, 02:16:00,VALID,916.741,VALID,0,VALID,97.9898,VALID,0,VALID,19.5511,VALID,322,VALID,0.0221354,
2001-04-05, 02:17:00,VALID,916.739,VALID,0,VALID,97.9746,VALID,-0.0339617,VALID,19.5742,VALID,322,VALID,0,
2001-04-05, 02:18:00,VALID,916.731,VALID,0,VALID,97.9403,VALID,-0.0169808,VALID,19.5872,VALID,71,VALID,0,
2001-04-05, 02:19:00,VALID,916.726,VALID,0,VALID,97.9886,VALID,-0.0509425,VALID,19.61,VALID,90,VALID,0,
2001-04-05, 02:20:00,VALID,916.723,VALID,0,VALID,98.0077,VALID,0,VALID,19.6227,VALID,90,VALID,0,
2001-04-05, 02:21:00,VALID,916.72,VALID,0,VALID,97.9924,VALID,0,VALID,19.6453,VALID,90,VALID,0,
2001-04-05, 02:22:00,VALID,916.716,VALID,0,VALID,97.9848,VALID,0.0169808,VALID,19.6478,VALID,90,VALID,0,
2001-04-05, 02:23:00,VALID,916.696,VALID,0,VALID,97.9441,VALID,0.0849042,VALID,19.6761,VALID,90,VALID,0,
2001-04-05, 02:24:00,VALID,916.682,VALID,0,VALID,97.8284,VALID,0.101885,VALID,19.6789,VALID,90,VALID,0,
2001-04-05, 02:25:00,VALID,916.672,VALID,0,VALID,97.6923,VALID,0.0509425,VALID,19.6789,VALID,90,VALID,0,
2001-04-05, 02:26:00,VALID,916.657,VALID,0,VALID,97.6567,VALID,0.101885,VALID,19.6721,VALID,90,VALID,0,
2001-04-05, 02:27:00,VALID,916.655,VALID,0,VALID,97.6402,VALID,0.0849042,VALID,19.6821,VALID,90,VALID,0,
2001-04-05, 02:28:00,VALID,916.646,VALID,0,VALID,97.5613,VALID,0.0679233,VALID,19.6756,VALID,92,VALID,0,
2001-04-05, 02:29:00,VALID,916.633,VALID,0,VALID,97.5308,VALID,0.0849042,VALID,19.6818,VALID,96,VALID,0,
2001-04-05, 02:30:00,VALID,916.625,VALID,0,VALID,97.4507,VALID,0.101885,VALID,19.6856,VALID,96,VALID,0,
2001-04-05, 02:31:00,VALID,916.598,VALID,0,VALID,97.4901,VALID,0.0679233,VALID,19.6823,VALID,118,VALID,0,
2001-04-05, 02:32:00,VALID,916.578,VALID,0,VALID,97.5639,VALID,0.101885,VALID,19.7149,VALID,167,VALID,0,
2001-04-05, 02:33:00,VALID,916.582,VALID,0,VALID,97.4621,VALID,0.101885,VALID,19.7017,VALID,275,VALID,0,
2001-04-05, 02:34:00,VALID,916.568,VALID,0,VALID,97.307,VALID,0.0679233,VALID,19.6856,VALID,272,VALID,0,
2001-04-05, 02:35:00,VALID,916.551,VALID,0,VALID,97.2816,VALID,0.101885,VALID,19.6692,VALID,272,VALID,0,
2001-04-05, 02:36:00,VALID,916.543,VALID,0,VALID,97.2828,VALID,0.101885,VALID,19.6692,VALID,258,VALID,0,
2001-04-05, 02:37:00,VALID,916.528,VALID,0,VALID,97.3057,VALID,-0.0679233,VALID,19.6707,VALID,126,VALID,0.440584,
2001-04-05, 02:38:00,VALID,916.497,VALID,0,VALID,97.3324,VALID,-0.0339617,VALID,19.6774,VALID,120,VALID,0.19848,
2001-04-05, 02:39:00,VALID,916.468,VALID,0,VALID,97.4342,VALID,-0.0339617,VALID,19.66,VALID,91,VALID,0.513455,
2001-04-05, 02:40:00,VALID,916.45,VALID,0,VALID,97.5117,VALID,-0.0339617,VALID,19.6709,VALID,51,VALID,0.0361328,
2001-04-05, 02:41:00,VALID,916.435,VALID,0,VALID,97.6033,VALID,0,VALID,19.6639,VALID,53,VALID,0,
2001-04-05, 02:42:00,VALID,916.418,VALID,0,VALID,97.6287,VALID,0,VALID,19.6639,VALID,100,VALID,0.0132212,
2001-04-05, 02:43:00,VALID,916.398,VALID,0,VALID,97.6834,VALID,0,VALID,19.6637,VALID,102,VALID,0.00200321,
2001-04-05, 02:44:00,VALID,916.37,VALID,0,VALID,97.7228,VALID,0,VALID,19.6669,VALID,104,VALID,0.347991,
2001-04-05, 02:45:00,VALID,916.346,VALID,0,VALID,97.7711,VALID,-0.0169808,VALID,19.6702,VALID,107,VALID,0.496194,
2001-04-05, 02:46:00,VALID,916.321,VALID,0,VALID,97.8093,VALID,-0.0339617,VALID,19.6803,VALID,104,VALID,0.523438,
2001-04-05, 02:47:00,VALID,916.293,VALID,0,VALID,97.8678,VALID,-0.0339617,VALID,19.693,VALID,105,VALID,0.143092,
2001-04-05, 02:48:00,VALID,916.299,VALID,0,VALID,97.8767,VALID,-0.0339617,VALID,19.7059,VALID,101,VALID,0.294054,
2001-04-05, 02:49:00,VALID,916.282,VALID,0,VALID,97.8932,VALID,-0.0509425,VALID,19.7032,VALID,105,VALID,0.751953,
2001-04-05, 02:50:00,VALID,916.271,VALID,0,VALID,97.9288,VALID,-0.0169808,VALID,19.7059,VALID,113,VALID,0.495175,
2001-04-05, 02:51:00,VALID,916.282,VALID,0,VALID,97.9492,VALID,-0.0169808,VALID,19.7059,VALID,115,VALID,0.467061,
2001-04-05, 02:52:00,VALID,916.275,VALID,0,VALID,97.9237,VALID,-0.0169808,VALID,19.7126,VALID,104,VALID,0.334335,
2001-04-05, 02:53:00,VALID,916.274,VALID,0,VALID,97.9186,VALID,0,VALID,19.7032,VALID,110,VALID,0.519431,
2001-04-05, 02:54:00,VALID,916.278,VALID,0,VALID,97.9682,VALID,-0.0169808,VALID,19.6928,VALID,82,VALID,0.207732,
2001-04-05, 02:55:00,VALID,916.27,VALID,0,VALID,98.0305,VALID,-0.0339617,VALID,19.7067,VALID,93,VALID,0.627902,
2001-04-05, 02:56:00,VALID,916.238,VALID,0,VALID,98,VALID,-0.0339617,VALID,19.6739,VALID,103,VALID,1.04102,
2001-04-05, 02:57:00,VALID,916.229,VALID,0,VALID,98.0763,VALID,0,VALID,19.6475,VALID,90,VALID,1.00605,
2001-04-05, 02:58:00,VALID,916.214,VALID,0,VALID,98.2098,VALID,-0.0339617,VALID,19.6413,VALID,93,VALID,0.969141,
2001-04-05, 02:59:00,VALID,916.198,VALID,0,VALID,98.2709,VALID,0,VALID,19.6341,VALID,91,VALID,1.8353,
2001-04-05, 03:00:00,VALID,916.172,VALID,0,VALID,98.2225,VALID,-0.0339617,VALID,19.5797,VALID,83,VALID,1.21636,
2001-04-05, 03:01:00,VALID,916.154,VALID,0,VALID,98.2734,VALID,-0.0169808,VALID,19.5509,VALID,91,VALID,1.07567,
2001-04-05, 03:02:00,VALID,916.149,VALID,0,VALID,98.3497,VALID,-0.0679233,VALID,19.5318,VALID,85,VALID,1.20059,
2001-04-05, 03:03:00,VALID,916.146,VALID,0,VALID,98.3561,VALID,-0.0169808,VALID,19.4962,VALID,99,VALID,0.888725,
2001-04-05, 03:04:00,VALID,916.149,VALID,0,VALID,98.4362,VALID,0,VALID,19.4831,VALID,87,VALID,0.810697,
2001-04-05, 03:05:00,VALID,916.136,VALID,0,VALID,98.4998,VALID,-0.0509425,VALID,19.4768,VALID,73,VALID,0.594351,
2001-04-05, 03:06:00,VALID,916.135,VALID,0,VALID,98.5354,VALID,-0.0509425,VALID,19.4445,VALID,59,VALID,0.38125,
2001-04-05, 03:07:00,VALID,916.129,VALID,0,VALID,98.5557,VALID,-0.0339617,VALID,19.4321,VALID,73,VALID,0.218544,
2001-04-05, 03:08:00,VALID,916.112,VALID,0,VALID,98.5939,VALID,-0.0169808,VALID,19.4219,VALID,83,VALID,1.11358,
2001-04-05, 03:09:00,VALID,916.088,VALID,0,VALID,98.66,VALID,-0.0339617,VALID,19.4411,VALID,94,VALID,0.860937,
2001-04-05, 03:10:00,VALID,916.076,VALID,0,VALID,98.7414,VALID,0,VALID,19.4604,VALID,93,VALID,0.854519,
2001-04-05, 03:11:00,VALID,916.068,VALID,0,VALID,98.7846,VALID,-0.0339617,VALID,19.4736,VALID,80,VALID,0.513302,
2001-04-05, 03:12:00,VALID,916.042,VALID,0,VALID,98.7833,VALID,-0.0339617,VALID,19.4671,VALID,102,VALID,0.984158,
2001-04-05, 03:13:00,VALID,916.012,VALID,0,VALID,98.8075,VALID,-0.0509425,VALID,19.487,VALID,100,VALID,0.660156,
2001-04-05, 03:14:00,VALID,916,VALID,0,VALID,98.866,VALID,-0.0679233,VALID,19.5094,VALID,94,VALID,0.720508,
2001-04-05, 03:15:00,VALID,915.977,VALID,0,VALID,98.9067,VALID,-0.0509425,VALID,19.5382,VALID,100,VALID,0.591947,
2001-04-05, 03:16:00,VALID,915.957,VALID,0,VALID,98.8711,VALID,-0.0339617,VALID,19.5191,VALID,79,VALID,0.852764,
2001-04-05, 03:17:00,VALID,915.944,VALID,0,VALID,98.8278,VALID,-0.0339617,VALID,19.4801,VALID,89,VALID,1.12031,
2001-04-05, 03:18:00,VALID,915.926,VALID,0,VALID,98.8444,VALID,-0.0679233,VALID,19.4639,VALID,81,VALID,1.04828,
2001-04-05, 03:19:00,VALID,915.925,VALID,0,VALID,98.8418,VALID,-0.0509425,VALID,19.4286,VALID,72,VALID,0.797697,
2001-04-05, 03:20:00,VALID,915.914,VALID,0,VALID,98.8596,VALID,0,VALID,19.4316,VALID,86,VALID,0.430099,
2001-04-05, 03:21:00,VALID,915.906,VALID,0,VALID,98.894,VALID,0,VALID,19.4284,VALID,93,VALID,0.700304,
2001-04-05, 03:22:00,VALID,915.91,VALID,0,VALID,98.9143,VALID,-0.0509425,VALID,19.4319,VALID,106,VALID,0.611328,
2001-04-05, 03:23:00,VALID,915.89,VALID,0,VALID,98.9372,VALID,-0.0679233,VALID,19.4344,VALID,92,VALID,0.938419,
2001-04-05, 03:24:00,VALID,915.879,VALID,0,VALID,98.9486,VALID,-0.0169808,VALID,19.4351,VALID,95,VALID,0.877745,
2001-04-05, 03:25:00,VALID,915.87,VALID,0,VALID,98.941,VALID,-0.0169808,VALID,19.4219,VALID,100,VALID,0.835537,
2001-04-05, 03:26:00,VALID,915.867,VALID,0,VALID,98.9779,VALID,0,VALID,19.4416,VALID,99,VALID,0.684095,
2001-04-05, 03:27:00,VALID,915.841,VALID,0,VALID,98.9766,VALID,-0.0509425,VALID,19.4319,VALID,111,VALID,0.945713,
2001-04-05, 03:28:00,VALID,915.824,VALID,0,VALID,98.9995,VALID,-0.0169808,VALID,19.4217,VALID,95,VALID,0.903795,
2001-04-05, 03:29:00,VALID,915.817,VALID,0,VALID,98.9919,VALID,-0.0509425,VALID,19.4224,VALID,92,VALID,1.49609,
2001-04-05, 03:30:00,VALID,915.797,VALID,0,VALID,99.0084,VALID,-0.0169808,VALID,19.4088,VALID,78,VALID,0.977734,
2001-04-05, 03:31:00,VALID,915.789,VALID,0,VALID,99.0186,VALID,-0.0339617,VALID,19.4088,VALID,70,VALID,0.826953,
2001-04-05, 03:32:00,VALID,915.768,VALID,0,VALID,99.0084,VALID,-0.0169808,VALID,19.3933,VALID,89,VALID,1.17103,
2001-04-05, 03:33:00,VALID,915.733,VALID,0,VALID,99.0262,VALID,-0.0169808,VALID,19.3996,VALID,94,VALID,1.14453,
2001-04-05, 03:34:00,VALID,915.698,VALID,0,VALID,99.0466,VALID,0,VALID,19.3996,VALID,83,VALID,0.716071,
2001-04-05, 03:35:00,VALID,915.672,VALID,0,VALID,99.0466,VALID,-0.0339617,VALID,19.3899,VALID,82,VALID,0.737965,
2001-04-05, 03:36:00,VALID,915.653,VALID,0,VALID,99.0669,VALID,-0.0679233,VALID,19.3996,VALID,84,VALID,0.742821,
2001-04-05, 03:37:00,VALID,915.637,VALID,0,VALID,99.0758,VALID,-0.0169808,VALID,19.4,VALID,99,VALID,0.768429,
2001-04-05, 03:38:00,VALID,915.601,VALID,0,VALID,99.0949,VALID,-0.0339617,VALID,19.3926,VALID,95,VALID,1.36358,
2001-04-05, 03:39:00,VALID,915.577,VALID,0,VALID,99.1025,VALID,-0.0509425,VALID,19.4224,VALID,92,VALID,1.15759,